Theta_e
316 316 322 326 324 325 326 324 337 354 352 345 347 349 350 349 350 352 336 342 343 355 350 343 340 339 341 342 333 325 323 327 327 329 333 335 336 334 335 335 334 333 332 334 337 340 343 343 344
315 319 323 319 326 329 326 323 354 350 345 342 344 346 347 349 347 344 340 336 349 353 350 341 338 337 340 343 335 327 324 327 327 326 330 333 335 336 335 335 335 335 333 334 336 337 338 341 345
323 325 319 323 324 329 325 320 349 345 343 347 349 345 346 349 343 344 343 348 355 350 342 337 336 339 341 343 339 330 326 325 329 327 326 327 330 332 333 335 335 335 334 334 335 337 337 337 339
324 316 316 323 330 330 329 319 346 348 349 350 348 359 349 345 342 347 352 354 354 352 343 334 334 338 341 343 341 336 330 326 328 330 328 327 327 327 329 332 333 335 335 335 336 336 336 336 337
322 312 317 324 329 329 323 320 322 331 335 351 349 358 357 348 350 346 333 346 347 343 340 336 334 336 341 343 342 340 337 332 326 329 331 329 329 328 331 334 336 336 335 337 337 336 336 335 335
314 311 313 318 321 327 322 320 320 321 322 335 336 338 342 355 351 340 335 341 335 338 338 337 335 333 335 340 341 341 341 336 328 326 330 331 330 330 331 335 339 338 338 338 338 338 337 334 333
314 312 314 316 315 321 323 319 319 320 322 324 325 324 322 337 350 345 344 340 334 334 340 339 337 335 334 333 334 336 339 338 333 327 327 330 331 331 331 334 338 340 339 339 338 336 335 332 331
311 310 314 314 313 322 321 321 317 319 322 323 323 324 323 323 349 344 340 335 335 340 342 342 338 337 336 335 334 333 333 333 334 334 329 327 330 331 332 333 334 336 337 337 337 336 333 330 329
310 309 310 316 319 320 317 320 320 320 321 322 322 321 322 322 356 350 343 343 348 348 344 344 342 340 338 337 336 335 335 334 333 333 333 332 331 331 332 332 333 333 334 336 337 337 334 328 327
311 309 315 318 318 317 316 318 319 320 320 321 321 322 323 323 325 333 329 342 334 349 332 331 340 348 345 346 340 338 337 337 336 334 334 334 334 335 335 336 337 335 334 334 336 338 336 331 328
313 313 318 319 318 316 316 316 317 318 319 319 320 322 322 321 320 323 325 328 329 331 329 329 329 336 330 335 347 346 341 347 340 338 337 334 333 334 336 336 339 343 342 338 338 339 338 336 333
316 317 317 318 317 317 317 316 317 317 318 318 317 318 318 321 319 319 323 328 329 329 329 328 326 326 327 327 327 328 329 331 349 351 343 338 337 337 336 337 340 344 346 345 343 342 341 339 337
318 317 317 316 316 317 317 318 317 316 317 317 317 318 317 317 320 321 325 329 329 328 327 326 325 322 320 319 320 322 324 324 327 337 351 348 345 345 346 341 343 343 343 345 345 344 343 343 341
317 317 316 316 317 317 318 318 318 317 316 317 317 316 315 316 318 326 328 330 329 327 326 323 319 317 315 316 320 324 326 328 327 326 329 342 350 347 347 347 344 344 344 344 344 344 344 345 343
318 317 314 315 317 318 317 318 318 317 317 315 316 315 316 317 318 324 328 328 327 325 322 319 317 318 317 319 320 322 327 329 329 328 329 329 330 342 348 348 347 347 346 345 346 346 346 346 346
318 315 315 315 316 317 317 316 317 316 316 316 315 316 317 316 317 325 328 328 326 323 321 320 318 319 319 319 322 323 323 320 323 323 325 326 331 332 334 345 349 347 347 347 346 346 345 345 345
315 318 318 317 316 318 317 316 316 315 316 317 315 315 316 315 318 327 328 327 325 322 320 318 318 318 318 317 317 317 316 315 317 321 321 319 321 319 331 337 346 350 346 345 345 343 344 345 345
317 317 317 318 319 317 316 315 317 317 317 316 314 314 314 315 318 326 326 326 324 322 320 319 318 317 317 317 317 316 316 315 316 319 319 318 317 315 317 327 341 347 347 345 343 344 341 341 342
318 318 317 317 317 317 317 316 315 314 313 313 313 312 313 313 324 325 325 325 324 323 322 321 321 321 317 317 318 317 316 315 315 315 314 315 315 314 317 316 325 342 347 344 343 340 332 339 341
318 317 317 316 316 316 315 315 314 314 314 317 315 315 317 321 324 324 325 325 324 324 323 323 322 320 319 318 320 319 319 317 317 316 315 316 314 317 321 322 327 331 339 342 341 336 333 336 340
318 318 318 317 316 315 316 316 316 316 319 320 319 318 318 320 321 322 323 324 324 324 324 323 322 320 320 320 321 319 318 317 316 316 316 315 314 316 320 327 330 331 337 339 339 338 337 340 339
318 317 318 317 316 316 317 316 316 316 319 319 320 319 318 317 317 317 319 321 322 322 324 323 322 321 321 321 321 319 318 319 317 317 316 314 314 316 323 321 319 319 323 336 337 336 334 336 333
318 317 317 318 317 313 314 315 316 317 319 317 318 320 318 317 317 317 318 321 320 321 321 322 322 322 323 322 320 319 319 318 317 316 315 314 317 318 317 316 319 320 321 324 331 337 336 335 336
317 315 314 313 313 316 318 317 314 319 319 317 317 319 320 317 316 316 317 318 320 320 321 321 320 321 321 319 321 321 320 318 317 315 315 316 318 317 315 316 316 320 323 325 325 325 327 331 335
314 312 314 315 314 315 316 317 314 318 318 317 318 318 319 317 317 317 317 317 318 318 317 317 318 318 318 319 320 322 320 318 315 315 315 316 316 316 316 314 315 317 317 320 321 324 327 332 336
316 313 313 317 317 317 316 318 315 317 315 316 316 318 319 318 316 317 316 317 316 316 316 316 316 316 316 318 318 318 320 315 315 315 315 315 317 316 314 314 316 317 317 319 320 320 325 330 325
316 314 313 315 317 319 316 317 317 316 315 315 317 316 314 316 315 316 317 316 315 315 316 315 315 315 316 316 316 320 316 315 315 315 316 317 314 314 313 313 313 315 319 320 320 321 323 328 331
316 315 314 314 319 321 319 322 320 317 315 313 314 316 314 313 313 312 313 313 314 314 315 316 315 314 314 315 316 316 316 316 317 316 314 313 311 311 310 309 310 311 311 314 315 319 322 326 329
315 314 315 314 317 321 323 318 316 316 313 312 312 315 313 313 313 312 312 313 312 311 312 314 312 311 311 311 312 312 312 312 312 311 310 310 309 308 308 307 308 310 310 309 313 317 322 326 327
316 317 314 318 317 317 320 316 314 315 312 313 313 312 309 309 308 311 310 311 311 310 311 311 310 310 310 310 309 309 309 309 309 309 309 308 307 306 306 306 307 308 309 314 316 318 321 324 328
Wind_Speed
17 15 12 2 4 5 5 6 4 6 3 4 2 5 11 7 6 4 23 22 11 6 8 9 8 10 11 13 14 14 17 18 18 19 21 21 20 19 19 19 17 15 15 14 12 11 11 12 12
17 14 3 2 5 5 6 4 7 6 8 11 7 7 1 5 4 3 8 24 9 9 8 9 9 10 12 13 13 13 15 17 17 17 18 18 17 16 16 16 14 13 13 12 10 9 8 8 9
14 8 3 4 3 3 3 5 10 13 15 7 4 1 3 6 9 7 14 9 14 14 13 9 10 11 13 14 13 12 12 14 15 16 16 15 14 13 12 12 11 10 11 10 8 7 6 5 6
7 4 3 4 1 2 1 4 13 8 8 4 2 5 4 8 10 8 15 15 6 12 14 14 11 13 15 15 15 13 12 11 12 13 14 14 13 13 12 11 10 9 10 9 7 6 5 4 3
4 3 4 3 3 4 4 5 10 6 2 5 6 3 3 2 24 43 38 9 5 15 16 14 14 15 16 16 15 14 12 10 11 12 12 12 12 11 12 11 10 10 11 9 8 8 7 6 5
5 3 4 3 5 2 3 4 8 5 6 4 7 8 4 17 43 51 37 32 26 20 20 18 15 15 16 15 15 13 12 10 10 11 12 12 12 12 12 11 11 11 10 9 9 8 9 9 7
5 4 3 2 7 5 5 5 6 6 9 4 4 5 6 16 44 53 44 28 29 6 23 18 15 13 13 14 13 12 11 10 10 11 11 11 12 12 13 13 12 12 11 10 10 10 11 11 10
4 4 5 3 4 1 3 2 7 7 1 3 3 1 3 14 42 38 28 24 19 4 20 15 14 12 13 12 10 9 9 10 11 11 12 12 12 13 14 14 14 14 14 13 12 12 12 13 13
4 4 2 4 4 4 6 4 1 2 5 3 2 5 7 30 37 32 27 18 13 12 10 5 8 10 8 8 7 6 6 7 9 11 12 14 15 16 16 16 16 16 17 16 15 14 14 14 15
4 4 3 1 3 2 2 4 3 4 4 4 5 3 12 29 32 24 21 22 16 25 22 23 8 10 3 1 4 4 6 10 13 13 13 15 15 16 17 18 17 18 18 18 17 17 16 16 17
4 5 3 2 4 4 4 7 3 3 3 6 10 4 3 11 25 27 24 32 30 27 21 19 21 20 15 11 5 7 13 15 15 15 15 16 16 18 19 19 18 18 17 19 19 20 21 21 20
4 0 5 5 3 3 1 1 5 4 3 10 10 8 5 5 5 23 26 32 30 24 23 18 15 13 12 11 9 9 11 13 12 18 18 19 19 19 21 22 20 20 20 20 20 21 23 23 23
4 3 5 4 5 2 2 2 3 2 5 8 8 6 8 7 7 18 28 29 28 25 18 14 12 11 11 11 15 15 14 13 11 12 17 23 22 22 21 24 23 22 22 24 24 24 23 23 25
1 2 5 4 2 0 1 2 3 6 4 6 10 10 7 8 10 22 25 27 26 23 18 16 16 13 10 12 13 16 16 15 15 14 11 12 24 29 26 25 26 28 26 26 24 25 24 23 23
4 8 7 5 2 4 5 6 5 8 3 7 8 9 9 8 16 21 18 21 24 21 18 15 12 11 11 10 11 16 19 18 18 19 18 15 14 19 33 30 27 30 29 25 22 20 20 22 24
4 5 5 10 5 4 5 9 10 12 3 5 9 9 9 8 10 26 26 26 23 22 18 16 14 13 12 12 10 11 14 18 19 21 21 21 17 18 19 24 32 32 31 28 25 23 21 21 23
6 1 2 8 2 2 3 8 9 12 8 3 8 7 8 8 9 22 28 30 27 24 21 16 11 10 9 9 8 9 11 15 17 18 22 22 21 22 19 19 23 30 33 26 24 22 23 22 23
3 3 3 3 4 1 3 7 9 8 5 8 8 9 9 10 9 24 32 33 30 26 21 19 16 13 10 7 7 9 12 15 17 19 23 23 25 26 22 21 19 23 28 26 25 19 20 25 23
3 1 3 4 6 6 1 6 7 9 6 9 11 9 9 7 16 30 33 33 28 24 22 21 19 15 12 9 8 12 14 14 16 19 23 23 29 29 26 22 19 17 21 25 22 21 29 32 27
7 5 4 4 6 4 8 7 6 7 12 21 17 16 8 8 17 22 26 30 30 27 22 20 18 14 11 9 7 7 12 15 17 19 21 25 30 29 25 24 21 16 16 21 24 19 27 29 28
3 5 2 3 4 5 6 6 9 10 16 22 24 23 21 12 9 4 6 18 24 26 24 22 18 13 9 7 4 5 11 17 21 25 25 27 29 28 28 23 23 19 18 20 23 28 30 25 26
3 4 2 6 6 2 3 5 6 5 16 18 16 18 20 20 15 14 20 17 9 4 12 12 13 11 7 4 2 5 8 8 14 19 23 26 26 26 19 25 28 26 23 18 22 27 28 22 21
1 5 4 2 3 3 7 4 5 7 11 9 7 10 10 10 12 12 17 23 24 21 15 11 9 10 9 5 6 9 10 9 11 14 20 24 23 23 27 31 29 27 23 21 21 26 26 26 27
3 7 8 6 3 3 2 3 5 3 4 2 4 7 8 7 6 8 15 19 17 15 14 11 8 3 3 9 13 15 14 11 11 14 18 20 20 21 26 27 29 27 28 23 21 25 26 30 32
10 8 4 5 5 4 4 3 5 5 3 3 5 6 5 5 6 7 8 11 10 7 5 4 11 14 25 24 19 21 17 13 11 12 15 17 19 20 22 26 26 28 29 31 27 25 23 23 21
2 6 4 4 3 9 4 4 5 2 6 4 5 5 4 3 3 3 2 5 1 4 7 15 14 15 21 28 28 23 18 16 12 13 15 16 14 16 21 22 25 25 28 28 32 29 28 25 28
6 4 4 3 3 2 4 2 4 10 8 7 6 7 7 6 5 2 4 1 5 11 15 16 17 24 25 29 30 22 18 15 15 15 14 13 12 16 18 23 26 25 24 27 31 32 31 31 30
2 3 5 4 5 6 4 2 4 10 8 9 8 5 5 7 8 8 9 9 12 18 21 19 21 23 21 15 13 14 13 13 10 8 11 14 17 20 23 27 28 29 28 31 32 34 31 32 29
7 6 4 2 3 1 4 4 5 5 5 7 8 5 7 7 7 8 14 20 22 25 23 17 11 9 9 8 7 8 9 9 11 14 17 20 22 26 28 29 29 27 27 31 33 32 29 30 26
3 2 3 2 6 4 3 5 6 9 7 11 8 9 9 8 8 7 11 12 16 19 13 12 10 15 15 14 15 15 17 19 20 21 23 23 26 29 30 29 27 28 27 26 30 30 27 28 29
Wind_Direction
322 334 312 57 49 63 331 37 20 133 344 274 194 180 182 136 155 205 181 197 227 213 198 162 151 144 147 145 140 136 140 141 142 141 139 138 135 131 130 130 129 130 131 128 125 121 117 111 103
326 333 42 81 74 54 308 88 66 123 175 115 92 109 228 78 32 334 159 210 204 185 205 161 150 147 151 153 147 140 143 146 148 148 146 145 139 137 135 136 134 136 138 135 132 129 125 119 114
326 317 77 89 96 98 306 43 136 154 166 207 141 51 58 94 68 200 332 112 159 177 176 162 149 144 150 152 150 143 142 150 155 155 155 156 155 151 146 146 147 148 151 147 147 145 141 134 128
337 17 21 86 70 175 178 39 160 148 250 214 116 68 110 150 144 80 67 71 131 194 186 161 153 145 149 152 152 147 141 152 161 165 163 164 166 168 164 162 162 167 166 165 169 177 183 181 167
12 61 41 37 232 194 116 111 109 95 102 193 172 122 35 104 109 104 75 70 220 191 193 172 155 145 145 150 153 149 147 153 166 175 175 175 175 182 179 176 177 178 181 185 192 202 211 218 218
13 82 43 345 289 340 53 79 91 85 13 110 68 104 111 130 129 132 138 160 187 190 193 175 166 149 144 149 154 156 156 160 166 181 187 188 188 195 197 194 194 195 198 205 211 222 229 232 236
120 80 202 303 289 335 158 123 97 106 86 46 181 90 150 127 142 148 157 172 195 174 185 175 169 155 146 146 152 159 165 169 175 185 195 199 201 208 212 211 212 217 219 221 228 235 238 238 242
112 89 8 249 281 220 140 104 127 117 122 134 53 357 62 99 149 153 159 164 169 219 185 174 163 166 165 162 159 163 168 180 187 193 200 205 210 218 224 226 228 232 235 235 237 243 246 246 247
111 63 299 299 32 348 344 113 327 123 111 72 109 137 103 93 148 147 151 159 157 141 146 149 182 177 171 172 172 186 198 212 210 211 212 214 215 221 227 231 236 239 241 244 243 243 246 249 253
94 104 243 148 118 67 343 48 23 33 58 85 98 40 104 98 109 132 118 137 111 129 98 80 86 184 126 15 265 231 251 240 235 230 227 228 228 231 235 238 239 244 247 249 249 249 251 249 252
160 176 193 326 116 82 12 14 295 118 36 202 145 145 57 94 114 118 119 118 115 120 102 89 83 99 73 67 29 359 330 285 263 253 246 244 241 238 237 238 236 237 242 245 246 248 248 249 250
82 337 138 197 107 82 47 323 353 57 235 160 138 141 116 131 147 136 135 137 133 126 109 97 89 81 61 45 30 5 348 1 301 283 267 253 247 244 244 242 238 239 245 247 246 250 254 255 255
72 11 347 164 149 146 125 318 199 259 193 154 145 144 143 158 202 100 133 132 128 119 121 109 92 66 42 19 8 359 352 346 332 332 279 266 255 250 248 242 240 241 245 248 251 253 259 262 259
317 36 319 286 236 354 301 269 50 269 131 215 158 172 178 166 172 137 141 136 126 120 109 94 80 64 42 29 13 4 359 354 351 348 333 320 278 263 258 253 253 249 246 247 249 253 259 267 266
12 355 342 301 274 200 139 327 274 261 315 238 204 179 173 186 156 160 146 127 121 109 104 91 75 62 54 35 12 359 360 356 4 5 356 347 329 304 265 264 261 255 243 236 238 245 248 260 265
20 56 345 284 175 262 108 255 269 277 308 257 197 199 199 202 195 162 147 135 129 125 115 104 98 86 72 60 43 12 353 358 356 0 16 13 359 346 319 295 265 260 252 234 231 233 237 246 257
11 252 286 319 80 78 129 249 288 319 336 282 225 227 234 231 107 143 147 147 143 136 130 122 121 111 85 63 43 20 7 2 2 1 7 13 14 6 355 319 294 268 259 262 255 261 250 249 252
241 309 301 289 301 276 336 308 324 305 320 286 271 264 253 224 161 150 152 152 149 147 143 139 133 124 117 77 22 1 353 355 355 355 354 358 2 5 3 353 328 287 265 265 265 278 292 291 282
173 218 294 289 357 22 179 232 272 306 331 315 291 268 251 189 167 162 159 156 155 157 151 145 136 132 107 74 25 359 357 350 341 341 345 352 355 360 2 358 347 321 281 269 258 269 269 287 284
33 54 355 312 350 46 330 317 306 326 356 349 321 302 194 162 161 166 166 166 168 163 157 148 146 127 100 96 67 14 349 342 340 341 341 348 350 356 4 1 358 341 313 278 259 251 251 260 263
53 80 342 247 327 342 356 342 357 22 40 36 34 39 36 29 26 31 177 179 175 172 166 162 150 123 124 107 54 344 347 338 342 341 341 344 348 353 358 8 4 350 315 280 261 256 251 252 259
27 297 330 341 38 324 18 287 333 34 34 39 33 36 40 37 41 33 27 27 19 7 175 163 127 126 136 126 281 306 324 311 329 331 332 338 344 351 4 349 345 342 345 304 277 269 257 253 268
279 30 0 300 339 53 341 67 271 2 22 9 26 66 64 62 61 51 51 51 45 60 72 90 127 147 173 206 251 255 260 265 298 315 320 334 339 343 340 346 346 342 335 331 312 282 275 258 258
322 17 28 24 61 50 214 104 325 5 280 302 24 43 56 90 85 83 88 70 60 48 46 29 21 18 239 263 262 253 249 256 280 307 315 331 332 335 339 342 341 338 334 329 324 318 287 278 273
42 43 341 358 356 234 307 39 236 232 237 76 53 56 34 19 30 35 45 66 70 61 49 333 278 291 292 279 272 265 250 255 275 289 307 320 322 332 337 336 336 328 324 321 315 315 303 283 279
355 124 148 286 245 283 292 224 187 333 65 58 63 59 60 39 172 107 144 190 173 238 271 286 263 263 269 267 267 274 250 266 275 289 299 302 314 325 328 329 328 327 319 315 313 308 304 298 275
322 7 216 226 235 325 212 7 216 50 36 24 45 42 3 358 335 81 217 319 274 264 260 273 287 275 274 280 272 264 250 267 281 287 288 295 314 325 325 324 321 318 319 314 311 308 302 303 286
98 279 7 6 332 306 342 340 264 1 351 350 343 343 348 341 344 337 338 335 335 339 327 306 295 285 294 322 300 279 280 281 288 292 298 309 316 318 320 319 313 309 303 301 304 306 302 301 297
340 8 7 135 156 253 289 259 16 25 301 332 329 333 346 336 320 314 324 339 349 349 342 337 4 15 8 13 355 341 332 320 308 303 305 310 314 316 317 316 307 301 300 296 291 294 298 297 296
239 263 149 138 284 239 204 258 59 40 18 15 355 353 336 332 318 293 305 317 326 334 346 336 341 329 325 319 312 308 306 303 302 304 306 309 311 311 312 309 300 299 298 291 281 284 287 290 294